Weather History for Paynesville, MN

Change the Weather History Date:

Friday, January 10, 2014

  Actual Average (KLJF) Record (KLJF)
Temperature  
Mean Temperature 23 °F -  
Max Temperature 28 °F 18 °F 51 °F (2012)
Min Temperature 18 °F -2 °F -31 °F (1982)
Degree Days  
Heating Degree Days 42    
Moisture  
Dew Point 24 °F    
Average Humidity 97    
Maximum Humidity 99    
Minimum Humidity 91    
Precipitation  
Precipitation 0.00 in - - ()
Sea Level Pressure  
Sea Level Pressure 29.60 in    
Wind  
Wind Speed 8 mph (SSE)    
Max Wind Speed 13 mph    
Max Gust Speed 20 mph    
Visibility 2 miles    
Events Fog , Snow    
Averages and records for this station are not official NWS values.
T = Trace of Precipitation, MM = Missing Value Source: NWS Daily Summary

Daily Weather History Graph

Daily Weather History Graph

Search for Another Location

Airport:

Trip Planner

Search our weather history database for the weather conditions in past years. The results will help you decide how hot, cold, wet, or windy it might be!

Date:

Astronomy

Jan. 10, 2014 Rise Set
Actual Time 7:57 AM CST 4:56 PM CST
Civil Twilight 7:23 AM CST 5:29 PM CST
Nautical Twilight 6:46 AM CST 6:06 PM CST
Astronomical Twilight 6:11 AM CST 6:42 PM CST
Moon 1:04 PM CST (1/10) 3:00 AM CST (1/10)
Length of Visible Light 10h 06m
Length of Day
8h 59m
Waxing Gibbous, 75% of the Moon is Illuminated
Jan 10
Waxing Gibbous
Jan 15
Full
Jan 23
Last Quarter
Jan 30
New
Feb 6
First Quarter

Hourly Weather History & Observations

Time (CST) Temp. Windchill Dew Point Humidity Pressure Visibility Wind Dir Wind Speed Gust Speed Precip Events Conditions
1:55 AM 18.9 °F 8.8 °F 16.7 °F 91% 29.77 in 4.0 mi SSE 8.1 mph 18.4 mph N/A   Overcast
2:12 AM 18.9 °F 8.8 °F 17.1 °F 93% 29.77 in 4.0 mi SSE 8.1 mph - N/A   Overcast
2:32 AM 19.4 °F 8.6 °F 17.6 °F 93% 29.77 in 4.0 mi SSE 9.2 mph - N/A   Overcast
2:53 AM 19.4 °F 7.9 °F 17.6 °F 93% 29.76 in 4.0 mi SSE 10.4 mph - N/A   Overcast
3:13 AM 19.4 °F 7.2 °F 17.8 °F 93% 29.76 in 4.0 mi SSE 11.5 mph - N/A   Overcast
3:32 AM 19.9 °F 7.9 °F 18.3 °F 93% 29.75 in 4.0 mi SSE 11.5 mph 17.3 mph N/A   Overcast
3:52 AM 19.8 °F 7.1 °F 18.3 °F 94% 29.74 in 3.0 mi SSE 12.7 mph - N/A   Overcast
4:13 AM 19.9 °F 8.6 °F 18.9 °F 96% 29.74 in 3.0 mi SE 10.4 mph - N/A   Overcast
4:32 AM 20.1 °F 8.1 °F 19.0 °F 96% 29.73 in 2.5 mi SE 11.5 mph 16.1 mph N/A   Overcast
4:52 AM 20.3 °F 7.7 °F 19.4 °F 96% 29.71 in 3.0 mi SSE 12.7 mph 17.3 mph N/A   Overcast
5:13 AM 21.0 °F 9.3 °F 19.9 °F 96% 29.71 in 3.0 mi SE 11.5 mph - N/A   Overcast
5:32 AM 21.2 °F 10.1 °F 20.3 °F 96% 29.70 in 2.5 mi SE 10.4 mph 17.3 mph N/A   Overcast
5:53 AM 21.7 °F 10.8 °F 20.7 °F 96% 29.69 in 2.5 mi SE 10.4 mph - N/A   Overcast
6:12 AM 22.1 °F 10.6 °F 21.2 °F 96% 29.68 in 1.5 mi SSE 11.5 mph 17.3 mph N/A   Overcast
6:32 AM 22.1 °F 12.0 °F 21.2 °F 96% 29.68 in 1.5 mi SE 9.2 mph - N/A   Overcast
6:53 AM 22.1 °F 10.6 °F 21.2 °F 96% 29.67 in 1.2 mi SE 11.5 mph - N/A   Overcast
7:12 AM 22.1 °F 10.0 °F 21.2 °F 96% 29.67 in 1.5 mi SE 12.7 mph - N/A   Overcast
7:32 AM 22.1 °F 12.0 °F 21.2 °F 96% 29.67 in 1.5 mi SSE 9.2 mph - N/A   Overcast
7:52 AM 22.8 °F 12.2 °F 21.9 °F 96% 29.66 in 1.8 mi SSE 10.4 mph - N/A   Overcast
8:12 AM 23.0 °F 11.7 °F 22.1 °F 96% 29.66 in 1.8 mi SE 11.5 mph - N/A   Overcast
8:33 AM 23.0 °F 11.1 °F 22.1 °F 96% 29.66 in 1.2 mi SSE 12.7 mph 17.3 mph N/A   Overcast
8:53 AM 23.4 °F 12.8 °F 22.5 °F 96% 29.66 in 1.0 mi SSE 10.4 mph - N/A   Overcast
9:13 AM 23.9 °F 14.2 °F 22.6 °F 95% 29.65 in 1.0 mi SSE 9.2 mph 17.3 mph N/A Snow Light Snow
9:33 AM 23.5 °F 12.4 °F 22.6 °F 96% 29.65 in 1.0 mi SSE 11.5 mph - N/A   Overcast
9:53 AM 23.7 °F 12.1 °F 22.8 °F 96% 29.65 in 1.0 mi SSE 12.7 mph - N/A   Overcast
10:13 AM 23.9 °F 12.3 °F 23.0 °F 96% 29.65 in 1.2 mi SSE 12.7 mph - N/A   Overcast
10:32 AM 24.4 °F 13.5 °F 23.5 °F 96% 29.65 in 1.2 mi SSE 11.5 mph 16.1 mph N/A Snow Light Snow
10:53 AM 24.8 °F 13.4 °F 23.9 °F 96% 29.65 in 1.2 mi South 12.7 mph 17.3 mph N/A   Overcast
11:13 AM 24.8 °F 14.0 °F 23.9 °F 96% 29.64 in 1.2 mi SSE 11.5 mph 17.3 mph N/A Snow Light Snow
11:32 AM 25.2 °F 15.1 °F 24.3 °F 96% 29.63 in 1.2 mi South 10.4 mph 18.4 mph N/A   Overcast
11:53 AM 25.5 °F 14.3 °F 24.6 °F 96% 29.61 in 1.2 mi SSE 12.7 mph 17.3 mph N/A Snow Light Snow
12:13 PM 25.7 °F 14.6 °F 24.8 °F 96% 29.60 in 1.2 mi South 12.7 mph 18.4 mph N/A   Overcast
12:33 PM 26.2 °F 17.1 °F 25.3 °F 96% 29.59 in 1.2 mi South 9.2 mph 19.6 mph N/A   Overcast
12:52 PM 26.4 °F 16.0 °F 25.5 °F 96% 29.57 in 1.0 mi South 11.5 mph 17.3 mph N/A   Overcast
1:13 PM 26.6 °F 17.5 °F 25.7 °F 96% 29.57 in 1.0 mi South 9.2 mph 17.3 mph N/A   Overcast
1:33 PM 26.6 °F 20.0 °F 25.7 °F 96% 29.56 in 0.8 mi South 5.8 mph - N/A   Overcast
1:52 PM 26.6 °F 19.1 °F 26.1 °F 98% 29.55 in 0.8 mi South 6.9 mph - N/A   Overcast
2:12 PM 27.0 °F 20.5 °F 26.2 °F 97% 29.55 in 0.8 mi South 5.8 mph - N/A   Overcast
2:33 PM 27.3 °F 19.9 °F 26.6 °F 97% 29.54 in 0.5 mi South 6.9 mph - N/A Fog Light Freezing Fog
2:52 PM 27.5 °F 19.3 °F 27.0 °F 98% 29.54 in 0.5 mi South 8.1 mph - N/A Fog Light Freezing Fog
3:12 PM 27.9 °F 22.6 °F 27.3 °F 98% 29.54 in 0.8 mi South 4.6 mph - N/A   Overcast
3:33 PM 28.0 °F 21.7 °F 27.5 °F 98% 29.53 in 0.8 mi SSE 5.8 mph - N/A   Overcast
3:52 PM 28.2 °F 21.0 °F 27.5 °F 97% 29.53 in 0.8 mi SSE 6.9 mph - N/A   Overcast
4:13 PM 28.4 °F 23.3 °F 27.9 °F 98% 29.54 in 1.0 mi South 4.6 mph - N/A   Overcast
4:33 PM 28.4 °F 22.2 °F 27.9 °F 98% 29.55 in 1.0 mi South 5.8 mph - N/A   Overcast
4:52 PM 28.4 °F 20.4 °F 27.9 °F 98% 29.54 in 0.8 mi SSE 8.1 mph - N/A   Overcast
5:12 PM 28.4 °F 21.2 °F 27.7 °F 97% 29.53 in 1.0 mi South 6.9 mph - N/A   Overcast
5:32 PM 28.2 °F 21.0 °F 27.9 °F 99% 29.52 in 0.8 mi South 6.9 mph - N/A   Overcast
5:52 PM 28.4 °F 21.2 °F 28.0 °F 99% 29.52 in 0.8 mi South 6.9 mph - N/A Snow Light Snow
6:13 PM 28.4 °F 22.2 °F 28.0 °F 99% 29.51 in 0.8 mi South 5.8 mph - N/A   Overcast
6:32 PM 28.4 °F 24.6 °F 28.2 °F 99% 29.51 in 0.5 mi SSW 3.5 mph - N/A Fog Light Freezing Fog
6:52 PM 28.4 °F - 28.2 °F 99% 29.51 in 0.5 mi Calm Calm - N/A Fog Light Freezing Fog
7:13 PM 28.4 °F - 28.0 °F 99% 29.51 in 0.5 mi Calm Calm - N/A Fog Light Freezing Fog
7:32 PM 28.4 °F - 28.2 °F 99% 29.50 in 0.5 mi Calm Calm - N/A Fog Light Freezing Fog
7:52 PM 28.4 °F - 28.0 °F 99% 29.50 in 0.5 mi Calm Calm - N/A Fog Light Freezing Fog
8:12 PM 28.4 °F - 28.0 °F 99% 29.50 in 0.5 mi Calm Calm - N/A Fog Light Freezing Fog
8:32 PM 28.4 °F - 28.0 °F 99% 29.49 in 0.5 mi Calm Calm - N/A Fog Light Freezing Fog
8:53 PM 28.4 °F - 28.2 °F 99% 29.49 in 2.0 mi Calm Calm - N/A   Overcast
9:12 PM 28.6 °F - 28.2 °F 99% 29.48 in 2.0 mi Calm Calm - N/A   Overcast
9:32 PM 28.6 °F - 28.2 °F 99% 29.48 in 2.0 mi Calm Calm - N/A   Overcast
9:52 PM 28.9 °F 25.2 °F 28.6 °F 99% 29.48 in 2.5 mi WSW 3.5 mph - N/A   Overcast
10:12 PM 28.9 °F - 28.6 °F 99% 29.49 in 2.5 mi Calm Calm - N/A   Overcast
10:32 PM 28.9 °F - 28.4 °F 98% 29.48 in 2.0 mi Calm Calm - N/A   Overcast
10:52 PM 28.4 °F - 28.0 °F 99% 29.48 in 1.2 mi Calm Calm - N/A   Overcast
11:13 PM 27.9 °F - 27.5 °F 99% 29.48 in 0.5 mi Calm Calm - N/A Fog Light Freezing Fog
11:32 PM 27.1 °F - 26.6 °F 98% 29.48 in 0.2 mi Calm Calm - N/A Fog Light Freezing Fog
11:52 PM 26.2 °F - 25.7 °F 98% 29.48 in 0.2 mi Calm Calm - N/A Fog Light Freezing Fog